Other Public Products
Issued by NWS Grand Forks, ND

Home | Current Version | Previous Version | Graphics & Text | Print | Product List | Glossary On
Versions: 1 2 3 4 5 6 7 8 9 10 11 12 13 14 15 16 17 18 19 20 21 22 23 24 25 26 27 28 29 30 31 32 33 34 35 36 37 38 39 40 41 42 43 44 45 46 47 48 49 50
000
FPUS83 KFGF 281731
OPUFGF
PRAIRIE TO PINES WEATHER ROUNDUP
NATIONAL WEATHER SERVICE EASTERN NORTH DAKOTA/GRAND FORKS ND
1200 PM CDT SAT MAY 28 2016

 **SATELLITE DATA USED TO AUGMENT SKY COVER AT AUTOMATED STATIONS**
 *****  WEATHER ACROSS EASTERN NORTH DAKOTA  *****

CITY           SKY/WX    TMP DP  RH WIND       PRES   REMARKS
GRAND FORKS    CLOUDY    72  55  55 NE13      29.83S
GRAND FORKS AF PTSUNNY   70  54  56 E8        29.84S
GRAND CITY NWS   N/A     68 N/A N/A N13         N/A
BUXTON           N/A     71  57  61 N9          N/A
DEVILS LAKE    CLOUDY    61  57  88 N7        29.89S
FARGO          PTSUNNY   70  56  61 NE13      29.80F
WAHPETON ARPT  PTSUNNY   70  48  46 N13       29.79F
$$

 *****  WEATHER ACROSS CENTRAL AND WESTERN NORTH DAKOTA  *****

CITY           SKY/WX    TMP DP  RH WIND       PRES   REMARKS
JAMESTOWN      CLOUDY    63  57  81 N9        29.86S
BISMARCK       CLOUDY    66  55  67 E5        29.88S
MINOT          CLOUDY    63  53  70 N5        29.90S
MINOT AFB      CLOUDY    59  53  81 E5        29.90S
GARRISON         N/A     63  54  72 E8        29.90R
WILLISTON      CLOUDY    63  53  70 E10       29.89F
DICKINSON      MOSUNNY   66  47  50 CALM      29.86F
HETTINGER      PTSUNNY   67  46  47 CALM      29.89S
$$

 *****  OTHER OBSERVATIONS NORTHEAST NORTH DAKOTA  *****

CITY           SKY/WX    TMP DP  RH WIND       PRES   REMARKS
WALHALLA       FAIR      64  64 100 NE6       29.88S
LANGDON        CLOUDY    66  61  82 N6        29.89F
CAVALIER       PTSUNNY   66  59  77 N7        29.87S
GRAFTON        FAIR      70  55  60 NE7       29.86F
CANDO          CLOUDY    59  57  94 N8        29.92S
FORT TOTTEN      N/A     61  58  90 N3        29.95S
ROLLA          CLOUDY    54  54 100 N8        29.93R FOG
RUGBY          CLOUDY    59  54  82 N5        29.90S
 ***** THE ABOVE OBSERVATIONS ARE NON NWS ARE NOT QUALITY
        CONTROLLED AND MAY MIS-REPORT RAIN FOR SNOW...
$$

 *****  OTHER OBSERVATIONS SOUTHEAST NORTH DAKOTA *****

CITY           SKY/WX    TMP DP  RH WIND       PRES   REMARKS
COOPERSTOWN    NOT AVBL
VALLEY CITY    CLOUDY    64  64 100 N9        29.86F
OAKES            N/A    N/A N/A N/A MISG        N/A
GWINNER        PTSUNNY   68  57  68 N8        29.83S
SHEYENNE NWR     N/A     69  56  63 NE8       29.95S
BUFFALO          N/A     67  51  55 NE7         N/A
WYNDMERE         N/A     68  57  68 N7          N/A
 ***** THE ABOVE OBSERVATIONS ARE NON NWS ARE NOT QUALITY
       CONTROLLED AND MAY MIS-REPORT RAIN FOR SNOW...
$$

  *****  WEATHER ACROSS NORTHERN MINNESOTA  *****

CITY           SKY/WX    TMP DP  RH WIND       PRES   REMARKS
FLAG ISLAND    CLOUDY    61  57  88 N18       29.87S
WARROAD        MOSUNNY   64  61  88 NE9       29.87S
ROSEAU         CLOUDY    66  61  82 NE13      29.85F
HALLOCK        PTSUNNY   72  52  49 E8        29.85S
THF RVR FALLS  CLOUDY    64  52  63 NE16G22   29.85F
HALSTAD        NOT AVBL
FOSSTON        CLOUDY    57  55  94 NE9G18    29.83R FOG
BAUDETTE       LGT RAIN  62  57  83 NE8       29.84F
WASKISH        CLOUDY    59  57  94 NE12      29.82F
CROOKSTON      PTSUNNY   70  57  64 E8        29.84S
$$
  *****  WEATHER ACROSS CENTRAL AND WEST MINNESOTA  *****

CITY           SKY/WX    TMP DP  RH WIND       PRES   REMARKS
BEMIDJI        CLOUDY    59  55  87 NE9       29.80F
PARK RAPIDS    CLOUDY    62  54  74 N9        29.79S
WADENA         CLOUDY    61  54  77 N6        29.80R
DETROIT LAKES  CLOUDY    61  54  77 NE7       29.82S
MOORHEAD       CLOUDY    66  57  72 N12       29.81F
FERGUS FALLS   PTSUNNY   66  55  68 NE7       29.76S
ELBOW LAKE     CLOUDY    65  55  70 N5        29.80S
MORRIS MN      CLOUDY    63  57  82 CALM      29.79S
STAPLES        CLOUDY    59  54  82 CALM      29.79S
WHEATON        PTSUNNY   68  57  68 NW8       29.81S
$$
  *****  WEATHER ELSEWHERE ACROSS MINNESOTA  *****

CITY           SKY/WX    TMP DP  RH WIND       PRES   REMARKS
DULUTH         FOG       47  46  97 CALM      29.80R VSB 1/8
INTRNTL FALLS  CLOUDY    59  56  89 NE9       29.83S FOG
ELY            CLOUDY    59  57  94 NE3       29.79S
CLOQUET        FOG       54  52  94 SE3       29.80R VSB 3/4
BRAINERD       CLOUDY    59  56  89 NE3       29.80R
HIBBING        CLOUDY    59  57  93 NE3       29.77F
ALEXANDRIA     CLOUDY    63  55  75 N3        29.80S
SAINT CLOUD    CLOUDY    60  57  89 SE5       29.79R
MINNEAPOLIS    CLOUDY    66  59  78 N3        29.77R
$$

  *****  WEATHER ACROSS SOUTH DAKOTA  *****

CITY           SKY/WX    TMP DP  RH WIND       PRES   REMARKS
SIOUX FALLS    CLOUDY    66  59  78 N9        29.77S
BROOKINGS      NOT AVBL
WATERTOWN      CLOUDY    62  56  80 NE9       29.81R
HURON          LGT RAIN  61  60  97 NE9       29.80R
SISSETON         N/A     69  53  56 NE12      29.79F
ABERDEEN       CLOUDY    64  58  80 NE8       29.83S
MITCHELL       LGT RAIN  63  61  93 NW10      29.80S
PIERRE         CLOUDY    68  54  60 N7        29.84S
MOBRIDGE       PTSUNNY   69  56  62 N8        29.84R
RAPID CITY     MOSUNNY   69  47  45 NE6       29.91S
$$

  *****  SOME WEATHER IN NEARBY STATES *****

CITY           SKY/WX    TMP DP  RH WIND       PRES   REMARKS
GLASGOW MT     CLOUDY    55  51  86 NW14      29.91R
GREAT FALLS MT MOSUNNY   56  26  31 W21       29.98S
CHEYENNE WY    MOSUNNY   63  35  35 MISG      30.04S
SCOTTSBLUFF NE SUNNY     69  44  40 W7        29.97S
OMAHA NE       PTSUNNY   69  58  67 SW9       29.78S
DES MOINES IA  CLOUDY    71  59  65 SW10      29.79R
DAVENPORT IA   MOSUNNY   78  65  63 S16       29.85S
CHICAGO IL     CLOUDY    74  64  71 S15G29    29.92R
EAU CLAIRE WI  CLOUDY    72  63  73 W3        29.75S
LA CROSSE WI   CLOUDY    72  63  73 SW9       29.78R
$$

  *****  SOME NATIONAL WEATHER *****

CITY           SKY/WX    TMP DP  RH WIND       PRES   REMARKS
LA GUARDIA NY  MOSUNNY   90  70  51 S9        30.10F HX  95
RALEIGH NC     PTSUNNY   83  59  44 CALM      30.20S
ATLANTA GA     MOSUNNY   81  49  32 E10       30.16F
NEW ORLEANS LA PTSUNNY   85  71  63 S9        30.03R HX  90
OKLAHOMA CITY  MOSUNNY   75  59  57 CALM      29.95S
ALBUQUERQUE NM MOSUNNY   70  29  21 S3        30.10F
SALT LAKE CITY MOSUNNY   65  43  44 VRB3      30.04R
LOS ANGELES CA CLOUDY    63  55  75 SW7       29.90S
BOISE ID       SUNNY     57  33  40 VRB6      30.10S
SEATTLE WA     CLOUDY    55  47  74 SW14      30.08S
$$

*** WEATHER ACROSS MANITOBA...SASKATCHEWAN AND ONTARIO ***
                ***ONTARIO***

CITY           SKY/WX    TMP DP  RH WIND       PRES   REMARKS
GERALDTON      LGT RAIN  57  57 100 E16G22    29.91F VSB 1
THUNDER BAY    CLOUDY    61  59  94 E8        29.82R
SIOUX LOOKOUT  CLOUDY    55  52  88 NE7       29.93S
TORONTO        PTSUNNY   82  66  57 S10       30.06F
BIG TROUT LK   CLOUDY    45  37  76 E12G20    30.18S
PICKLE LAKE    CLOUDY    48  45  87 NE12G18   30.04S
DRYDEN         LGT RAIN  55  54  94 NE15      29.90F
KENORA         CLOUDY    57  55  94 NE10      29.91S
$$
                *** MANITOBA***

CITY           SKY/WX    TMP DP  RH WIND       PRES   REMARKS
BRANDON        CLOUDY    52  50  93 NE14G21   29.94S
DAUPHIN        CLOUDY    50  48  93 NE8       29.99S FOG
ISLAND LAKE    CLOUDY    45  39  81 NE5       30.13F
PILOT MOUND      N/A     55  55 100 NE9         N/A
THE PAS        CLOUDY    48  41  76 E7        30.09S
THOMPSON       CLOUDY    41  36  81 E6        30.19F
WINNIPEG       CLOUDY    59  59 100 NE13      29.91S
LYNN LAKE      CLOUDY    39  36  87 SE10      30.17S
CHURCHILL      PTSUNNY   43  32  65 S9        30.34F
GILLAM         CLOUDY    37  34  87 E7        30.26F
$$
                ***SASKATCHEWAN***

CITY           SKY/WX    TMP DP  RH WIND       PRES   REMARKS
ESTEVAN        CLOUDY    55  52  88 E12       29.92F
KINDERSLEY     LGT RAIN  52  46  82 VRB5      29.87S
LLOYDMINSTER   TSTM      54  50  87 SE8       29.87R FOG
PRINCE ALBERT  CLOUDY    50  46  87 E13       29.98S
REGINA         PTSUNNY   61  52  72 SE14G21   29.92F
YORKTON        CLOUDY    55  46  71 E9        29.96F  C1F1C2F2C3F3C4F4C5F5C6F6C7F7C8F8C9F9CaFaCbFbCcFcCdFdCe!



USA.gov is the U.S. government's official web portal to all federal, state and local government web resources and services.